Location: Normandy Village
(37.8755°N, 122.2655°W)
Time: 08:21:14
(UTC+00:00)

Hubble Space Telescope - Pass Details

Date: 22 September 2019
Orbit: 536 x 540 km, 28.5° (Epoch: 19 October)

Event Time Altitude Azimuth Distance (km) Brightness Sun altitude
Exits shadow 12:13:03 11° 172° (S) 1,721 3.2 -21.0°
Drops below altitude 10° 12:13:22 10° 168° (SSE) 1,775 3.3 -20.9°
Sets 12:16:39 0° 140° (SE) 2,664 4.6 -20.3°
